Wahiawa, HI

9:18 AM HST on February 25, 2017 (GMT -1000)
Wheeler Army Air Field

Weather History for PHHI - July, 2013

Change the Weather History Date:

Friday, July 5, 2013

  Actual Average Record
Temperature  
Mean Temperature 74 °F -  
Max Temperature 83 °F 79 °F 86 °F (2001)
Min Temperature 65 °F 67 °F 64 °F (2000)
Cooling Degree Days 9    
Growing Degree Days 24 (Base 50)    
Moisture  
Dew Point 62 °F    
Average Humidity 70    
Maximum Humidity 88    
Minimum Humidity 47    
Precipitation  
Precipitation 0.00 in - - ()
Sea Level Pressure  
Sea Level Pressure 30.00 in    
Wind  
Wind Speed 5 mph (NNW)    
Max Wind Speed 12 mph    
Max Gust Speed -    
Visibility 10 miles    
Events      
Averages and records for this station are not official NWS values.
T = Trace of Precipitation, MM = Missing Value Source: NWS Daily Summary

Daily Weather History Graph

Daily Weather History Graph

Search for Another Location

Airport or City:

Trip Planner

Search our weather history database for the weather conditions in past years. The results will help you decide how hot, cold, wet, or windy it might be!

Date:

Astronomy

Jul. 05, 2013 Rise Set
Actual Time 5:54 AM HST 7:18 PM HST
Civil Twilight 5:30 AM HST 7:43 PM HST
Nautical Twilight 5:00 AM HST 8:12 PM HST
Astronomical Twilight 4:30 AM HST 8:43 PM HST
Moon 3:56 AM HST (7/5) 5:28 PM HST (7/5)
Length of Visible Light 14h 13m
Length of Day
13h 23m
Waning Crescent, 5% of the Moon is Illuminated
Jul 5
Waning Crescent
Jul 7
New
Jul 15
First Quarter
Jul 22
Full
Jul 29
Last Quarter

Hourly Weather History & Observations

Time (HST) Temp. Heat Index Dew Point Humidity Pressure Visibility Wind Dir Wind Speed Gust Speed Precip Events Conditions
12:55 AM 65.5 °F - 61.7 °F 88% 30.01 in 10.0 mi NW 3.5 mph - N/A   Clear
1:55 AM 65.1 °F - 61.5 °F 88% 30.00 in 10.0 mi NW 4.6 mph - N/A   Clear
2:55 AM 65.1 °F - 61.3 °F 88% 29.99 in 10.0 mi WNW 5.8 mph - N/A   Clear
3:55 AM 65.7 °F - 61.0 °F 85% 29.98 in 10.0 mi WNW 5.8 mph - N/A   Clear
4:55 AM 65.1 °F - 60.6 °F 85% 29.99 in 10.0 mi WNW 6.9 mph - N/A   Clear
5:55 AM 65.1 °F - 60.1 °F 84% 29.99 in 10.0 mi NW 4.6 mph - N/A   Clear
6:55 AM 66.9 °F - 60.6 °F 80% 30.00 in 10.0 mi NW 4.6 mph - N/A   Clear
7:55 AM 72.5 °F - 63.5 °F 73% 30.02 in 10.0 mi West 4.6 mph - N/A   Clear
8:55 AM 76.1 °F - 64.2 °F 67% 30.02 in 10.0 mi East 4.6 mph - N/A   Clear
9:55 AM 78.4 °F - 63.9 °F 61% 30.02 in 10.0 mi West 5.8 mph - N/A   Clear
10:55 AM 81.3 °F 82.2 °F 61.5 °F 51% 30.01 in 10.0 mi Variable 5.8 mph - N/A   Clear
11:55 AM 83.1 °F 83.5 °F 61.0 °F 47% 30.01 in 10.0 mi East 5.8 mph - N/A   Scattered Clouds
12:55 PM 83.7 °F 84.7 °F 63.0 °F 50% 29.99 in 10.0 mi Variable 4.6 mph - N/A   Overcast
1:55 PM 82.0 °F 83.0 °F 62.4 °F 51% 29.98 in 10.0 mi ENE 8.1 mph - N/A   Mostly Cloudy
2:55 PM 82.9 °F 83.7 °F 61.7 °F 49% 29.97 in 10.0 mi Variable 6.9 mph - N/A   Mostly Cloudy
3:55 PM 83.8 °F 85.3 °F 64.6 °F 52% 29.95 in 10.0 mi Variable 5.8 mph - N/A   Mostly Cloudy
4:55 PM 80.2 °F 81.6 °F 63.3 °F 56% 29.95 in 10.0 mi East 8.1 mph - N/A   Mostly Cloudy
5:55 PM 79.7 °F - 63.3 °F 57% 29.95 in 10.0 mi ENE 11.5 mph - N/A   Scattered Clouds
6:55 PM 75.9 °F - 64.2 °F 67% 29.98 in 10.0 mi ENE 9.2 mph - N/A   Clear
7:55 PM 73.9 °F - 63.5 °F 70% 29.99 in 10.0 mi Variable 4.6 mph - N/A   Clear
8:55 PM 72.5 °F - 63.3 °F 73% 30.01 in 10.0 mi NNW 3.5 mph - N/A   Clear
9:55 PM 69.3 °F - 63.0 °F 80% 30.03 in 10.0 mi WNW 4.6 mph - N/A   Clear
10:55 PM 68.4 °F - 63.3 °F 84% 30.03 in 10.0 mi WNW 4.6 mph - N/A   Clear
11:55 PM 67.6 °F - 63.1 °F 85% 30.02 in 10.0 mi WNW 3.5 mph - N/A   Clear